KAITUO 1B
1 40912U 15049P   18010.06672087  .00001086  00000-0  56038-4 0  9992
2 40912  97.4509  19.6751 0014601 196.2498 212.6370 15.18360519127675
TIANWANG 1C (TW-1C)
1 40926U 15051B   18010.38394991  .00005832  00000-0  11886-3 0  9994
2 40926  97.2051  53.5600 0011758 127.6746 290.8646 15.46551330128909
TIANWANG 1B (TW-1B)
1 40927U 15051C   18010.48515888  .00005724  00000-0  12142-3 0  9992
2 40927  97.2135  53.5785 0011502 138.0988 327.6479 15.45383554128844
TIANWANG 1A (TW-1A)
1 40928U 15051D   18009.86331757 +.00002338 +00000-0 +65077-4 0  9998
2 40928 097.2038 046.9066 0012214 164.7857 248.2270 15.37751694128445
LAPAN A2
1 40931U 15052B   18009.59782759  .00000711  00000-0  99322-5 0  9999
2 40931   5.9953 201.0022 0013437 288.0574  71.8066 14.76561956123520
LQSAT
1 40958U 15057A   18009.89171938 +.00000002 +00000-0 +80476-5 0  9990
2 40958 097.9587 086.3806 0019352 121.6970 238.6109 14.73010809121556
CHUBUSAT 2
1 41338U 16012B   18009.86512424 +.00000298 +00000-0 +16561-4 0  9991
2 41338 031.0024 239.4808 0014003 304.9822 054.9499 14.99902086104048
CHUBUSAT 3
1 41339U 16012C   18009.03391773  .00000276  00000-0  14781-4 0  9991
2 41339  31.0088 243.5862 0013780 303.5725  56.3595 15.00094535103904
OUFTI-1
1 41458U 16025C   18010.13729701  .00001322  00000-0  74005-4 0  9994
2 41458  98.1596  64.4117 0170046 317.8239  41.0016 15.04139383 93670
E-STAR-2
1 41459U 16025D   18010.18460331  .00000765  00000-0  45094-4 0  9997
2 41459  98.1589  64.3588 0170890 318.2427  40.5870 15.03910130 93673
AAUSAT 4
1 41460U 16025E   18010.50256602  .00000935  00000-0  53540-4 0  9993
2 41460  98.1521  64.9747 0163216 314.1490  44.6432 15.05137523 93761
NUSAT 1
1 41557U 16033B   18010.15829826  .00001201  00000-0  46779-4 0  9997
2 41557  97.4486  94.6142 0013875   3.2921 356.8407 15.27900530 90025
BEESAT 4
1 41619U 16040W   18009.93966974 +.00001294 +00000-0 +60269-4 0  9996
2 41619 097.4374 075.1400 0013244 068.6163 291.6484 15.21647088074027
PRATHAM
1 41783U 16059A   18009.72816838  .00000041  00000-0  17535-4 0  9995
2 41783  98.1410  73.6665 0032675 231.6382 128.1883 14.62893180 68792
ALSAT 1N
1 41789U 16059G   18010.22847109  .00000081  00000-0  24576-4 0  9990
2 41789  98.1414  75.0663 0027271 222.6740 137.2352 14.64118072 68907
NAYIF 1
1 42017U 17008BX  18010.40251937  .00001393  00000-0  60598-4 0  9999
2 42017  97.4701  76.2727 0005844 201.3642 158.7352 15.23930193 50039
LILACSAT-1
1 42725U 98067ME  18010.34159100  .00015387  00000-0  17410-3 0  9993
2 42725  51.6384  78.8662 0005608   1.9881 358.1135 15.62629106 35789
MAX VALIER SAT
1 42778U 17036P   18009.84187852 +.00000879 +00000-0 +42768-4 0  9991
2 42778 097.4263 072.0235 0011183 262.9718 097.0246 15.20965904030438
